Time,TemperatureF,DewpointF,PressureIn,WindDirection,WindDirectionDegrees,WindSpeedMPH,WindSpeedGustMPH,Humidity,HourlyPrecipIn,Conditions,Clouds,dailyrainin,SoftwareType,DateUTC
2013-05-08 00:02:00,69.0,59.0,29.92,North,0,0.0,0.0,71,0.00,,,0.00,,2013-05-08 05:02:00,
2013-05-08 00:12:00,69.0,59.0,29.92,North,0,0.0,0.0,71,0.00,,,0.00,,2013-05-08 05:12:00,
2013-05-08 00:22:00,69.0,59.0,29.91,North,0,0.0,0.0,71,0.00,,,0.00,,2013-05-08 05:22:00,
2013-05-08 00:32:00,69.0,59.0,29.91,North,0,0.0,0.0,71,0.00,,,0.00,,2013-05-08 05:32:00,
2013-05-08 00:42:00,69.0,59.0,29.91,North,0,0.0,0.0,71,0.00,,,0.00,,2013-05-08 05:42:00,
2013-05-08 00:52:00,69.0,59.0,29.91,North,0,0.0,0.0,71,0.00,,,0.00,,2013-05-08 05:52:00,
2013-05-08 01:01:00,69.0,59.0,29.91,North,0,0.0,0.0,71,0.00,,,0.00,,2013-05-08 06:01:00,
2013-05-08 01:12:00,69.0,59.0,29.91,North,0,0.0,0.0,71,0.00,,,0.00,,2013-05-08 06:12:00,
2013-05-08 01:21:00,69.0,59.0,29.91,North,0,0.0,0.0,71,0.00,,,0.00,,2013-05-08 06:21:00,
2013-05-08 01:32:00,69.0,59.0,29.90,North,0,0.0,0.0,71,0.00,,,0.00,,2013-05-08 06:32:00,
2013-05-08 01:41:00,69.0,59.0,29.90,North,0,0.0,0.0,71,0.00,,,0.00,,2013-05-08 06:41:00,
2013-05-08 01:52:00,69.0,59.0,29.90,North,0,0.0,0.0,71,0.00,,,0.00,,2013-05-08 06:52:00,
2013-05-08 02:01:00,69.0,59.0,29.89,North,0,0.0,0.0,71,0.00,,,0.00,,2013-05-08 07:01:00,
2013-05-08 02:11:00,69.0,59.0,29.89,North,0,0.0,0.0,71,0.00,,,0.00,,2013-05-08 07:11:00,
2013-05-08 02:21:00,69.0,59.0,29.89,North,0,0.0,0.0,71,0.00,,,0.00,,2013-05-08 07:21:00,
2013-05-08 02:32:00,69.0,59.0,29.89,North,0,0.0,0.0,71,0.00,,,0.00,,2013-05-08 07:32:00,
2013-05-08 02:42:00,69.0,59.0,29.89,North,0,0.0,0.0,71,0.00,,,0.00,,2013-05-08 07:42:00,
2013-05-08 02:52:00,69.0,59.0,29.89,North,0,0.0,0.0,71,0.00,,,0.00,,2013-05-08 07:52:00,
2013-05-08 03:01:00,69.0,59.0,29.89,North,0,0.0,0.0,71,0.00,,,0.00,,2013-05-08 08:01:00,
2013-05-08 03:11:00,69.0,59.0,29.89,North,0,0.0,0.0,71,0.00,,,0.00,,2013-05-08 08:11:00,
2013-05-08 03:21:00,69.0,59.0,29.89,North,0,0.0,0.0,71,0.00,,,0.00,,2013-05-08 08:21:00,
2013-05-08 03:32:00,69.0,59.0,29.89,North,0,0.0,0.0,71,0.00,,,0.00,,2013-05-08 08:32:00,
2013-05-08 03:42:00,69.0,59.0,29.89,North,0,0.0,0.0,71,0.00,,,0.00,,2013-05-08 08:42:00,
2013-05-08 03:52:00,69.0,59.0,29.90,North,0,0.0,0.0,71,0.00,,,0.00,,2013-05-08 08:52:00,
2013-05-08 04:02:00,69.0,59.0,29.90,North,0,0.0,0.0,71,0.00,,,0.00,,2013-05-08 09:02:00,
2013-05-08 04:11:00,69.0,59.0,29.90,North,0,0.0,0.0,71,0.00,,,0.00,,2013-05-08 09:11:00,
2013-05-08 04:21:00,69.0,59.0,29.90,North,0,0.0,0.0,71,0.00,,,0.00,,2013-05-08 09:21:00,
2013-05-08 04:32:00,69.0,59.0,29.90,North,0,0.0,0.0,71,0.00,,,0.00,,2013-05-08 09:32:00,
2013-05-08 04:42:00,69.0,59.0,29.90,North,0,0.0,0.0,71,0.00,,,0.00,,2013-05-08 09:42:00,
2013-05-08 04:53:00,69.0,59.0,29.91,North,0,0.0,0.0,71,0.00,,,0.00,,2013-05-08 09:53:00,
2013-05-08 05:02:00,69.0,59.0,29.91,North,0,0.0,0.0,71,0.00,,,0.00,,2013-05-08 10:02:00,
2013-05-08 05:12:00,69.0,59.0,29.91,North,0,0.0,0.0,71,0.00,,,0.00,,2013-05-08 10:12:00,
2013-05-08 05:22:00,69.0,59.0,29.91,North,0,0.0,0.0,71,0.00,,,0.00,,2013-05-08 10:22:00,
2013-05-08 05:33:00,69.0,59.0,29.92,North,0,0.0,0.0,71,0.00,,,0.00,,2013-05-08 10:33:00,
2013-05-08 05:42:00,69.0,59.0,29.92,North,0,0.0,0.0,71,0.00,,,0.00,,2013-05-08 10:42:00,
2013-05-08 05:52:00,69.0,59.0,29.92,North,0,0.0,0.0,71,0.00,,,0.00,,2013-05-08 10:52:00,
2013-05-08 06:02:00,69.0,59.0,29.92,North,0,0.0,0.0,71,0.00,,,0.00,,2013-05-08 11:02:00,
2013-05-08 06:11:00,69.0,59.0,29.92,North,0,0.0,0.0,71,0.00,,,0.00,,2013-05-08 11:11:00,
2013-05-08 06:22:00,69.0,59.0,29.92,North,0,0.0,0.0,71,0.00,,,0.00,,2013-05-08 11:22:00,
2013-05-08 06:32:00,69.0,59.0,29.95,North,0,0.0,0.0,71,0.00,,,0.00,,2013-05-08 11:32:00,
2013-05-08 06:42:00,69.0,59.0,29.95,North,0,0.0,0.0,71,0.00,,,0.00,,2013-05-08 11:42:00,
2013-05-08 06:52:00,69.0,59.0,29.95,North,0,0.0,0.0,71,0.00,,,0.00,,2013-05-08 11:52:00,
2013-05-08 07:01:00,69.0,59.0,29.95,North,0,0.0,0.0,71,0.00,,,0.00,,2013-05-08 12:01:00,
2013-05-08 07:11:00,69.0,59.0,29.95,North,0,0.0,0.0,71,0.00,,,0.00,,2013-05-08 12:11:00,
2013-05-08 07:21:00,69.0,59.0,29.96,North,0,0.0,0.0,71,0.00,,,0.00,,2013-05-08 12:21:00,
2013-05-08 07:32:00,69.0,59.0,29.96,North,0,0.0,0.0,71,0.00,,,0.00,,2013-05-08 12:32:00,
2013-05-08 07:41:00,69.0,59.0,29.96,North,0,0.0,0.0,71,0.00,,,0.00,,2013-05-08 12:41:00,
2013-05-08 07:52:00,60.0,60.0,29.97,North,0,0.0,0.0,100,0.00,,,0.00,,2013-05-08 12:52:00,
2013-05-08 08:01:00,61.0,59.0,29.97,North,0,0.0,0.0,94,0.00,,,0.00,,2013-05-08 13:01:00,
2013-05-08 08:11:00,61.0,59.0,29.97,North,0,0.0,0.0,94,0.00,,,0.00,,2013-05-08 13:11:00,
2013-05-08 08:21:00,62.0,58.0,29.97,West,281,0.0,2.0,87,0.00,,,0.00,,2013-05-08 13:21:00,
2013-05-08 08:32:00,63.0,58.0,29.97,NNW,328,0.0,4.0,84,0.00,,,0.00,,2013-05-08 13:32:00,
2013-05-08 08:42:00,63.0,58.0,29.97,NNW,328,0.0,4.0,84,0.00,,,0.00,,2013-05-08 13:42:00,
2013-05-08 08:52:00,65.0,58.0,29.98,NW,326,1.0,6.0,79,0.00,,,0.00,,2013-05-08 13:52:00,
2013-05-08 09:02:00,66.0,59.0,29.98,NNW,335,1.0,6.0,77,0.00,,,0.00,,2013-05-08 14:02:00,
2013-05-08 09:11:00,66.0,59.0,29.98,NNW,335,1.0,6.0,77,0.00,,,0.00,,2013-05-08 14:11:00,
2013-05-08 09:21:00,67.0,58.0,29.98,North,353,1.0,5.0,74,0.00,,,0.00,,2013-05-08 14:21:00,
2013-05-08 09:31:00,68.0,59.0,29.98,NNW,346,0.0,5.0,72,0.00,,,0.00,,2013-05-08 14:31:00,
2013-05-08 09:42:00,68.0,59.0,29.98,NNW,346,0.0,5.0,72,0.00,,,0.00,,2013-05-08 14:42:00,
2013-05-08 09:51:00,70.0,60.0,29.98,NE,45,0.0,3.0,70,0.00,,,0.00,,2013-05-08 14:51:00,
2013-05-08 10:02:00,71.0,58.0,29.97,North,6,1.0,6.0,64,0.00,,,0.00,,2013-05-08 15:02:00,
2013-05-08 10:11:00,71.0,58.0,29.97,North,6,1.0,6.0,64,0.00,,,0.00,,2013-05-08 15:11:00,
2013-05-08 10:21:00,71.0,61.0,29.97,North,1,0.0,6.0,70,0.14,,,0.14,,2013-05-08 15:21:00,
2013-05-08 10:33:00,69.0,59.0,29.98,NNE,32,0.0,3.0,71,0.15,,,0.15,,2013-05-08 15:33:00,
2013-05-08 10:42:00,69.0,59.0,29.98,NNE,32,0.0,3.0,71,0.15,,,0.15,,2013-05-08 15:42:00,
2013-05-08 10:52:00,71.0,61.0,29.98,NE,43,1.0,5.0,70,0.15,,,0.15,,2013-05-08 15:52:00,
2013-05-08 11:03:00,72.0,59.0,29.98,NE,35,1.0,5.0,64,0.15,,,0.15,,2013-05-08 16:03:00,
2013-05-08 11:12:00,72.0,59.0,29.98,NE,35,1.0,5.0,64,0.15,,,0.15,,2013-05-08 16:12:00,
2013-05-08 11:23:00,73.0,58.0,29.98,NE,48,1.0,5.0,59,0.01,,,0.15,,2013-05-08 16:23:00,
2013-05-08 11:33:00,73.0,57.0,29.98,NE,36,2.0,10.0,58,0.00,,,0.15,,2013-05-08 16:33:00,
2013-05-08 11:42:00,73.0,57.0,29.98,NE,36,2.0,10.0,58,0.00,,,0.15,,2013-05-08 16:42:00,
2013-05-08 11:52:00,75.0,58.0,29.98,NE,36,0.0,5.0,55,0.00,,,0.15,,2013-05-08 16:52:00,
2013-05-08 12:02:00,75.0,57.0,29.98,NNE,22,0.0,5.0,54,0.00,,,0.15,,2013-05-08 17:02:00,
2013-05-08 12:12:00,75.0,57.0,29.98,NNE,22,0.0,5.0,54,0.00,,,0.15,,2013-05-08 17:12:00,
2013-05-08 12:22:00,76.0,55.0,29.97,NNE,15,1.0,6.0,49,0.00,,,0.15,,2013-05-08 17:22:00,
2013-05-08 12:31:00,76.0,55.0,29.97,NNE,15,1.0,6.0,49,0.00,,,0.15,,2013-05-08 17:31:00,
2013-05-08 12:41:00,76.0,55.0,29.97,NNE,15,1.0,6.0,49,0.00,,,0.15,,2013-05-08 17:41:00,
2013-05-08 12:52:00,77.0,55.0,29.97,North,5,1.0,6.0,46,0.00,,,0.15,,2013-05-08 17:52:00,
2013-05-08 13:02:00,77.0,56.0,29.96,NE,45,1.0,5.0,48,0.00,,,0.15,,2013-05-08 18:02:00,
2013-05-08 13:11:00,77.0,56.0,29.96,NE,45,1.0,5.0,48,0.00,,,0.15,,2013-05-08 18:11:00,
2013-05-08 13:21:00,77.0,56.0,29.96,North,351,1.0,6.0,48,0.00,,,0.15,,2013-05-08 18:21:00,
2013-05-08 13:31:00,77.0,56.0,29.96,WNW,290,0.0,5.0,48,0.00,,,0.15,,2013-05-08 18:31:00,
2013-05-08 13:42:00,76.0,56.0,29.96,North,11,0.0,3.0,50,0.00,,,0.15,,2013-05-08 18:42:00,
2013-05-08 13:51:00,76.0,56.0,29.96,North,11,0.0,3.0,50,0.00,,,0.15,,2013-05-08 18:51:00,
2013-05-08 14:01:00,77.0,54.0,29.95,NE,52,1.0,5.0,45,0.00,,,0.15,,2013-05-08 19:01:00,
2013-05-08 14:11:00,77.0,54.0,29.95,NE,52,1.0,5.0,45,0.00,,,0.15,,2013-05-08 19:11:00,
2013-05-08 14:21:00,78.0,55.0,29.95,NE,55,0.0,3.0,45,0.00,,,0.15,,2013-05-08 19:21:00,
2013-05-08 14:32:00,78.0,54.0,29.95,WNW,301,1.0,6.0,44,0.00,,,0.15,,2013-05-08 19:32:00,
2013-05-08 14:42:00,79.0,54.0,29.94,NNE,20,0.0,6.0,42,0.00,,,0.15,,2013-05-08 19:42:00,
2013-05-08 14:52:00,79.0,54.0,29.94,NNE,20,0.0,6.0,42,0.00,,,0.15,,2013-05-08 19:52:00,
2013-05-08 15:02:00,79.0,54.0,29.94,ENE,58,1.0,3.0,42,0.00,,,0.15,,2013-05-08 20:02:00,
2013-05-08 15:11:00,79.0,54.0,29.94,ENE,58,1.0,3.0,42,0.00,,,0.15,,2013-05-08 20:11:00,
2013-05-08 15:22:00,79.0,53.0,29.93,NE,54,1.0,5.0,40,0.00,,,0.15,,2013-05-08 20:22:00,
2013-05-08 15:32:00,79.0,54.0,29.93,NNE,15,0.0,3.0,42,0.00,,,0.15,,2013-05-08 20:32:00,
2013-05-08 15:42:00,80.0,53.0,29.92,NE,44,0.0,3.0,40,0.00,,,0.15,,2013-05-08 20:42:00,
2013-05-08 15:52:00,80.0,53.0,29.92,NE,44,0.0,3.0,40,0.00,,,0.15,,2013-05-08 20:52:00,
2013-05-08 16:01:00,80.0,53.0,29.92,NE,43,0.0,3.0,40,0.00,,,0.15,,2013-05-08 21:01:00,
2013-05-08 16:11:00,80.0,52.0,29.92,NW,314,0.0,6.0,38,0.00,,,0.15,,2013-05-08 21:11:00,
2013-05-08 16:21:00,80.0,52.0,29.92,NW,314,0.0,6.0,38,0.00,,,0.15,,2013-05-08 21:21:00,
2013-05-08 16:33:00,80.0,55.0,29.92,West,271,1.0,7.0,42,0.00,,,0.15,,2013-05-08 21:33:00,
2013-05-08 16:43:00,80.0,52.0,29.92,NNE,31,0.0,5.0,38,0.00,,,0.15,,2013-05-08 21:43:00,
2013-05-08 16:53:00,80.0,52.0,29.92,NNE,31,0.0,5.0,38,0.00,,,0.15,,2013-05-08 21:53:00,
2013-05-08 17:02:00,78.0,52.0,29.91,NW,307,0.0,5.0,41,0.00,,,0.15,,2013-05-08 22:02:00,
2013-05-08 17:12:00,78.0,54.0,29.91,WNW,290,0.0,1.0,43,0.00,,,0.15,,2013-05-08 22:12:00,
2013-05-08 17:22:00,78.0,54.0,29.91,WNW,290,0.0,1.0,43,0.00,,,0.15,,2013-05-08 22:22:00,
2013-05-08 17:33:00,78.0,54.0,29.92,WNW,285,1.0,8.0,43,0.00,,,0.15,,2013-05-08 22:33:00,
2013-05-08 17:42:00,78.0,54.0,29.92,WNW,282,1.0,7.0,44,0.00,,,0.15,,2013-05-08 22:42:00,
2013-05-08 17:52:00,78.0,54.0,29.92,WNW,282,1.0,7.0,44,0.00,,,0.15,,2013-05-08 22:52:00,
2013-05-08 18:01:00,78.0,54.0,29.92,WNW,289,1.0,6.0,44,0.00,,,0.15,,2013-05-08 23:01:00,
2013-05-08 18:11:00,77.0,54.0,29.92,West,270,1.0,7.0,45,0.00,,,0.15,,2013-05-08 23:11:00,
2013-05-08 18:22:00,77.0,54.0,29.92,West,270,1.0,7.0,45,0.00,,,0.15,,2013-05-08 23:22:00,
2013-05-08 18:32:00,77.0,54.0,29.92,WNW,286,0.0,5.0,45,0.00,,,0.15,,2013-05-08 23:32:00,
2013-05-08 18:42:00,76.0,55.0,29.91,West,268,0.0,2.0,49,0.00,,,0.15,,2013-05-08 23:42:00,
2013-05-08 18:52:00,76.0,55.0,29.91,West,268,0.0,2.0,49,0.00,,,0.15,,2013-05-08 23:52:00,
2013-05-08 19:02:00,76.0,55.0,29.91,West,270,0.0,2.0,49,0.00,,,0.15,,2013-05-09 00:02:00,
2013-05-08 19:12:00,75.0,57.0,29.92,West,274,0.0,1.0,53,0.00,,,0.15,,2013-05-09 00:12:00,
2013-05-08 19:21:00,75.0,57.0,29.92,West,274,0.0,1.0,53,0.00,,,0.15,,2013-05-09 00:21:00,
2013-05-08 19:32:00,75.0,58.0,29.92,West,274,0.0,1.0,55,0.00,,,0.15,,2013-05-09 00:32:00,
2013-05-08 19:42:00,74.0,61.0,29.93,North,0,0.0,0.0,63,0.00,,,0.15,,2013-05-09 00:42:00,
2013-05-08 19:52:00,74.0,61.0,29.93,North,0,0.0,0.0,63,0.00,,,0.15,,2013-05-09 00:52:00,
2013-05-08 20:01:00,72.0,60.0,29.93,North,0,0.0,0.0,67,0.00,,,0.15,,2013-05-09 01:01:00,
2013-05-08 20:11:00,70.0,59.0,29.93,North,0,0.0,0.0,69,0.00,,,0.15,,2013-05-09 01:11:00,
2013-05-08 20:22:00,70.0,59.0,29.93,North,0,0.0,0.0,69,0.00,,,0.15,,2013-05-09 01:22:00,
2013-05-08 20:32:00,68.0,57.0,29.93,North,0,0.0,0.0,69,0.00,,,0.15,,2013-05-09 01:32:00,
2013-05-08 20:42:00,68.0,58.0,29.93,North,0,0.0,0.0,71,0.00,,,0.15,,2013-05-09 01:42:00,
2013-05-08 20:52:00,68.0,58.0,29.93,North,0,0.0,0.0,71,0.00,,,0.15,,2013-05-09 01:52:00,
2013-05-08 21:02:00,66.0,58.0,29.94,North,0,0.0,0.0,75,0.00,,,0.15,,2013-05-09 02:02:00,
2013-05-08 21:11:00,66.0,59.0,29.94,North,0,0.0,0.0,77,0.00,,,0.15,,2013-05-09 02:11:00,
2013-05-08 21:21:00,66.0,59.0,29.94,North,0,0.0,0.0,77,0.00,,,0.15,,2013-05-09 02:21:00,
2013-05-08 21:32:00,64.0,57.0,29.95,North,0,0.0,0.0,79,0.00,,,0.15,,2013-05-09 02:32:00,
2013-05-08 21:41:00,64.0,57.0,29.95,North,0,0.0,0.0,79,0.00,,,0.15,,2013-05-09 02:41:00,
2013-05-08 21:52:00,64.0,57.0,29.95,North,0,0.0,0.0,79,0.00,,,0.15,,2013-05-09 02:52:00,
2013-05-08 22:01:00,64.0,55.0,29.96,North,0,0.0,0.0,73,0.00,,,0.15,,2013-05-09 03:01:00,
2013-05-08 22:11:00,65.0,56.0,29.96,North,0,0.0,0.0,72,0.00,,,0.15,,2013-05-09 03:11:00,
2013-05-08 22:21:00,65.0,56.0,29.96,North,0,0.0,0.0,72,0.00,,,0.15,,2013-05-09 03:21:00,
2013-05-08 22:33:00,65.0,56.0,29.96,North,0,0.0,0.0,74,0.00,,,0.15,,2013-05-09 03:33:00,
2013-05-08 22:43:00,63.0,57.0,29.96,North,0,0.0,0.0,82,0.00,,,0.15,,2013-05-09 03:43:00,
2013-05-08 22:52:00,63.0,57.0,29.96,North,0,0.0,0.0,82,0.00,,,0.15,,2013-05-09 03:52:00,
2013-05-08 23:03:00,62.0,57.0,29.96,North,0,0.0,0.0,83,0.00,,,0.15,,2013-05-09 04:03:00,
2013-05-08 23:12:00,62.0,57.0,29.96,North,0,0.0,0.0,83,0.00,,,0.15,,2013-05-09 04:12:00,
2013-05-08 23:23:00,61.0,57.0,29.96,North,0,0.0,0.0,86,0.00,,,0.15,,2013-05-09 04:23:00,
2013-05-08 23:33:00,61.0,57.0,29.96,North,0,0.0,0.0,87,0.00,,,0.15,,2013-05-09 04:33:00,
2013-05-08 23:43:00,61.0,57.0,29.96,North,0,0.0,0.0,87,0.00,,,0.15,,2013-05-09 04:43:00,
2013-05-08 23:53:00,61.0,58.0,29.95,North,0,0.0,0.0,89,0.00,,,0.15,,2013-05-09 04:53:00,